Location: Saluda
(35.2377°N, 82.3468°W)
Time: 04:46:57
(UTC+00:00)

Vanguard 2 Rocket - Pass Details

Date: 11 October 2022
Orbit: 555 x 3321 km, 32.9° (Epoch: 04 December)

Event Time Altitude Azimuth Distance (km) Brightness Sun altitude
Rises 23:58:50 0° 223° (SW) 6,995 12.1 -12.7°
Reaches altitude 10° 00:03:33 10° 218° (SW) 6,145 11.6 -13.6°
Maximum altitude 00:22:29 50° 150° (SSE) 3,761 9.7 -17.5°
Enters shadow 00:33:26 25° 92° (E) 4,424 9.7 -19.7°
Drops below altitude 10° 00:38:06 10° 82° (E) 5,190 - -20.7°
Sets 00:41:39 0° 77° (ENE) 5,888 - -21.4°
